Content
SEND FEEDBACK

Daily
Averages
Monthly
Summary
Belgium

GENT, BELGIUM


Home > Europe > Belgium
Elevation: 43 feet     Latitude: 51 11N     Longitude: 003 49E

WEATHER
 
SELECT A DAY
Number of Records: 305,734;   Date Range: 7/1/96 - 7/23/14
 
SHARE

PRINT THIS DATA

[ ← Previous Day ]
WEATHER ALMANAC - FEBRUARY 8, 2014
[ Next Day → ]
[ °C ]   °F
Weather ElementAverageHighLow
Temperature45.9 °F49 °F (5:00 pm)42 °F (1:00 am)
Dewpoint38.9 °F43 °F (1:00 pm)33.8 °F (12:20 am)
Humidity74.2 %87 % (8:50 am)53 % (9:00 pm)
Barometer29.21 in29.48 in (1:00 am)29.09 in (4:50 pm)
Wind Speed16.5 mph20.7 mph (6:50 am)
Wind Gust33.4 mph (9:50 pm)
Weather ElementAverage
Visibility10.3 mi
Wind DirectionSSW (190.8 °)

Weather ElementTotal
Precipitation---
Heating Degree Days19.5 (Base 65)
Averaged from 71 records on February 8, 2014
WEATHER CONDITIONS BREAKOUT
WIND DIRECTION BREAKOUT
WEATHER BY HOUR - FEBRUARY 8, 2014
[ °C ]   °F
Local TimeTemperatureDewpointHumidityBarometerVisibilityWind DirectionWind SpeedGust SpeedPrecipitationEventsConditions
12:20 AM42.8 °F33.8 °F70 %29.47 inSSE (160°)10.4 mphClear
12:50 AM42.8 °F33.8 °F70 %29.47 inSouth (170°)10.4 mphClear
1:00 AM42.0 °F34.0 °F66 %29.48 in25.0 miSouth (170°)8.9 mph
1:20 AM42.8 °F35.6 °F76 %29.44 inSouth (170°)10.4 mphClear
1:50 AM44.6 °F35.6 °F71 %29.42 inSouth (170°)11.5 mphClear
2:00 AM44.0 °F35.0 °F61 %29.44 in22.0 miSouth (170°)11.2 mphOvercast
2:20 AM44.6 °F35.6 °F71 %29.42 in6.2 miSouth (180°)12.7 mphPartly Cloudy
2:50 AM44.6 °F35.6 °F71 %29.39 in6.2 miSouth (180°)16.1 mph27.6 mphMostly Cloudy
3:00 AM45.0 °F36.0 °F62 %29.41 in28.0 miSouth (180°)15.7 mphMostly Cloudy
3:20 AM44.6 °F37.4 °F76 %29.39 in6.2 miSouth (190°)16.1 mphLight Drizzle
3:50 AM44.6 °F39.2 °F81 %29.36 in6.2 miSouth (180°)13.8 mphRainLight Rain Showers
4:00 AM45.0 °F39.0 °F71 %29.37 in14.0 miSouth (180°)13.4 mphOvercast
4:20 AM44.6 °F39.2 °F81 %29.33 in6.2 miSouth (180°)15.0 mphRainLight Rain Showers
4:50 AM44.6 °F39.2 °F81 %29.30 in6.2 miSouth (180°)16.1 mph28.8 mphRainLight Rain Showers
5:00 AM45.0 °F39.0 °F72 %29.32 in19.0 miSouth (180°)15.7 mphClear
5:20 AM46.4 °F39.2 °F76 %29.30 in6.2 miSouth (180°)16.1 mphMostly Cloudy
5:50 AM46.4 °F39.2 °F76 %29.27 in6.2 miSouth (180°)17.3 mph28.8 mphRainLight Rain Showers
6:00 AM46.0 °F40.0 °F72 %29.29 in19.0 miSouth (180°)17.9 mphRainLight Drizzle
6:20 AM46.4 °F41.0 °F81 %29.27 in6.2 miSouth (190°)19.6 mph31.1 mphRainLight Rain Showers
6:50 AM46.4 °F41.0 °F81 %29.24 in6.2 miSouth (190°)20.7 mphRainLight Rain
7:00 AM46.0 °F41.0 °F75 %29.26 in7.0 miSouth (190°)20.1 mphRainLight Rain
7:20 AM46.4 °F41.0 °F81 %29.24 in6.2 miSouth (190°)17.3 mph28.8 mphRainLight Rain
7:50 AM46.4 °F39.2 °F76 %29.21 in6.2 miSouth (190°)18.4 mphRainLight Rain
8:00 AM46.0 °F40.0 °F72 %29.24 in9.0 miSouth (190°)17.9 mphRainLight Rain
8:20 AM46.4 °F41.0 °F81 %29.21 in6.2 miSSW (200°)18.4 mphRainLight Rain
8:50 AM44.6 °F41.0 °F87 %29.21 in6.2 miSouth (190°)19.6 mph32.2 mphRainLight Rain
9:00 AM45.0 °F41.0 °F79 %29.21 in9.0 miSouth (190°)20.1 mphRainLight Rain
9:20 AM46.4 °F41.0 °F81 %29.21 in6.2 miSouth (190°)19.6 mph31.1 mphRainLight Rain
9:50 AM44.6 °F41.0 °F87 %29.18 in6.2 miSouth (190°)18.4 mph31.1 mphRainLight Rain
10:00 AM45.0 °F41.0 °F80 %29.19 in9.0 miSouth (190°)17.9 mphRainLight Rain
10:20 AM44.6 °F41.0 °F87 %29.18 in6.2 miSouth (190°)18.4 mph29.9 mphRainLight Rain
10:50 AM46.4 °F41.0 °F81 %29.18 in6.2 miSouth (190°)17.3 mphRainLight Rain
11:00 AM46.0 °F41.0 °F77 %29.18 in11.0 miSouth (190°)17.9 mphRainLight Rain
11:20 AM46.4 °F42.8 °F87 %29.18 in4.3 miSouth (190°)17.3 mphRainLight Rain
11:50 AM46.4 °F41.0 °F81 %29.15 in6.2 miSouth (190°)18.4 mph31.1 mphMostly Cloudy
12:00 PM47.0 °F42.0 °F76 %29.18 in12.0 miSouth (190°)17.9 mphRainLight Rain
12:20 PM46.4 °F42.8 °F87 %29.15 in6.2 miSSW (200°)18.4 mphRainLight Rain
12:50 PM46.4 °F42.8 °F87 %29.15 in6.2 miSSW (200°)17.3 mphMostly Cloudy
1:00 PM47.0 °F43.0 °F79 %29.16 in9.0 miSSW (200°)17.9 mphRainLight Rain
1:20 PM48.2 °F42.8 °F82 %29.15 in6.2 miSSW (200°)17.3 mphScattered Clouds
1:50 PM48.2 °F42.8 °F82 %29.12 in6.2 miSSW (200°)19.6 mphRainLight Rain Showers
2:00 PM47.0 °F42.0 °F76 %29.15 in9.0 miSSW (200°)20.1 mphRainLight Rain Showers
2:20 PM46.4 °F42.8 °F87 %29.12 in6.2 miSouth (190°)12.7 mphPartly Cloudy
2:50 PM48.2 °F42.8 °F82 %29.12 in6.2 miSouth (190°)15.0 mphPartly Cloudy
3:00 PM48.0 °F43.0 °F75 %29.13 in16.0 miSouth (190°)15.7 mphRainLight Rain Showers
3:20 PM48.2 °F42.8 °F82 %29.12 in6.2 miSouth (190°)13.8 mphPartly Cloudy
3:50 PM48.2 °F42.8 °F82 %29.12 in6.2 miSouth (190°)12.7 mphScattered Clouds
4:00 PM48.0 °F42.0 °F74 %29.13 in16.0 miSouth (190°)13.4 mphPartly Cloudy
4:20 PM48.2 °F41.0 °F76 %29.12 in6.2 miSouth (190°)15.0 mphPartly Cloudy
4:50 PM48.2 °F41.0 °F76 %29.09 in6.2 miSouth (190°)16.1 mphPartly Cloudy
5:00 PM49.0 °F41.0 °F65 %29.12 in16.0 miSouth (190°)15.7 mphScattered Clouds
5:20 PM48.2 °F41.0 °F76 %29.09 in6.2 miSouth (190°)15.0 mphPartly Cloudy
5:50 PM48.2 °F39.2 °F71 %29.12 in6.2 miSSW (200°)16.1 mphPartly Cloudy
6:00 PM48.0 °F40.0 °F65 %29.13 in19.0 miSSW (200°)15.7 mphScattered Clouds
6:20 PM48.2 °F39.2 °F71 %29.12 in6.2 miSouth (190°)16.1 mphPartly Cloudy
6:50 PM46.4 °F37.4 °F71 %29.12 in6.2 miSSW (200°)17.3 mphPartly Cloudy
7:00 PM47.0 °F38.0 °F61 %29.13 in31.0 miSSW (200°)17.9 mphPartly Cloudy
7:20 PM46.4 °F37.4 °F71 %29.12 in6.2 miSSW (200°)17.3 mph29.9 mphPartly Cloudy
7:50 PM46.4 °F37.4 °F71 %29.12 inSouth (190°)15.0 mphClear
8:00 PM47.0 °F38.0 °F61 %29.13 in25.0 miSouth (190°)15.7 mph
8:20 PM46.4 °F35.6 °F66 %29.12 inSSW (200°)19.6 mphClear
8:50 PM46.4 °F33.8 °F62 %29.12 inSSW (200°)17.3 mph28.8 mphClear
9:00 PM46.0 °F35.0 °F53 %29.13 in25.0 miSSW (200°)15.7 mph
9:20 PM44.6 °F35.6 °F71 %29.12 in6.2 miSSW (200°)17.3 mphPartly Cloudy
9:50 PM44.6 °F33.8 °F66 %29.12 in6.2 miSSW (210°)20.7 mph33.4 mphPartly Cloudy
10:00 PM44.0 °F34.0 °F57 %29.14 in25.0 miSSW (210°)20.1 mphScattered Clouds
10:20 PM42.8 °F33.8 °F70 %29.12 inSSW (210°)18.4 mphClear
10:50 PM42.8 °F33.8 °F70 %29.15 in6.2 miSSW (210°)18.4 mphPartly Cloudy
11:00 PM43.0 °F34.0 °F60 %29.15 in25.0 miSSW (210°)17.9 mphScattered Clouds
11:20 PM44.6 °F33.8 °F66 %29.12 in6.2 miSSW (210°)19.6 mphMostly Cloudy
11:50 PM44.6 °F33.8 °F66 %29.15 in6.2 miSSW (210°)18.4 mphOvercast
Hourly data recorded from EBAW, located miles away from Gent, Belgium







STORIES FROM OUR PARTNERS